Meteo pe oră la Aljezur Municipality

Astăzi, 18 Ianuarie, Luni

Timp Temperatura Precipitaţii Vânt Presiune Umiditate
00:00 +7°C° 0 mm 2 m/s 760 mmHg 70%
01:00 +5°C° 0 mm 3 m/s 759 mmHg 70%
02:00 +5°C° 0 mm 3 m/s 759 mmHg 70%
03:00 +6°C° 0 mm 2 m/s 759 mmHg 68%
04:00 +6°C° 0 mm 2 m/s 759 mmHg 66%
05:00 +7°C° 0 mm 1 m/s 759 mmHg 64%
06:00 +8°C° 0 mm 1 m/s 759 mmHg 63%
07:00 +7°C° 0 mm 2 m/s 759 mmHg 62%
08:00 +8°C° 0 mm 2 m/s 759 mmHg 61%
09:00 +12°C° 0 mm 2 m/s 760 mmHg 57%
10:00 +14°C° 0 mm 2 m/s 760 mmHg 54%
11:00 +16°C° 0 mm 2 m/s 760 mmHg 50%
12:00 +16°C° 0 mm 2 m/s 759 mmHg 53%
13:00 +16°C° 0 mm 2 m/s 759 mmHg 55%
14:00 +16°C° 0 mm 3 m/s 758 mmHg 57%
15:00 +14°C° 0 mm 2 m/s 758 mmHg 67%
16:00 +12°C° 0 mm 2 m/s 758 mmHg 76%
17:00 +9°C° 0 mm 2 m/s 759 mmHg 86%
18:00 +9°C° 0 mm 2 m/s 759 mmHg 88%
19:00 +8°C° 0 mm 2 m/s 759 mmHg 90%
20:00 +8°C° 0 mm 2 m/s 759 mmHg 91%
21:00 +8°C° 0 mm 2 m/s 759 mmHg 92%
22:00 +7°C° 0 mm 2 m/s 759 mmHg 92%
23:00 +7°C° 0 mm 2 m/s 759 mmHg 92%

Mâine, 19 Ianuarie, Marţi

Timp Temperatura Precipitaţii Vânt Presiune Umiditate
00:00 +7°C° 0 mm 2 m/s 759 mmHg 93%
01:00 +7°C° 0 mm 2 m/s 758 mmHg 94%
02:00 +7°C° 0 mm 2 m/s 758 mmHg 94%
03:00 +8°C° 0 mm 2 m/s 758 mmHg 94%
04:00 +8°C° 0 mm 3 m/s 758 mmHg 95%
05:00 +8°C° 0 mm 3 m/s 758 mmHg 95%
06:00 +8°C° 0 mm 3 m/s 758 mmHg 93%
07:00 +9°C° 0 mm 3 m/s 757 mmHg 91%
08:00 +10°C° 0 mm 3 m/s 757 mmHg 90%
09:00 +11°C° 0 mm 3 m/s 757 mmHg 82%
10:00 +13°C° 0 mm 4 m/s 758 mmHg 74%
11:00 +15°C° 0 mm 4 m/s 758 mmHg 66%
12:00 +15°C° 0 mm 4 m/s 757 mmHg 65%
13:00 +15°C° 0 mm 4 m/s 756 mmHg 65%
14:00 +15°C° 0 mm 4 m/s 756 mmHg 65%
15:00 +14°C° 0 mm 5 m/s 755 mmHg 71%
16:00 +13°C° 0 mm 5 m/s 755 mmHg 76%
17:00 +12°C° 0 mm 5 m/s 755 mmHg 82%
18:00 +12°C° 0 mm 5 m/s 754 mmHg 83%
19:00 +10°C° 0 mm 6 m/s 754 mmHg 84%
20:00 +10°C° 0 mm 7 m/s 754 mmHg 84%
21:00 +11°C° 0 mm 7 m/s 753 mmHg 83%
22:00 +11°C° 0 mm 8 m/s 753 mmHg 81%
23:00 +12°C° 0 mm 9 m/s 752 mmHg 79%

Poimâine, 20 Ianuarie, Miercuri

Timp Temperatura Precipitaţii Vânt Presiune Umiditate
00:00 +12°C° 0.2 mm 9 m/s 751 mmHg 81%
01:00 +12°C° 0.2 mm 10 m/s 750 mmHg 82%
02:00 +12°C° 0.2 mm 11 m/s 750 mmHg 84%
03:00 +12°C° 4.7 mm 11 m/s 749 mmHg 87%
04:00 +13°C° 4.7 mm 12 m/s 749 mmHg 90%
05:00 +13°C° 4.7 mm 12 m/s 748 mmHg 93%
06:00 +13°C° 0.7 mm 10 m/s 748 mmHg 92%
07:00 +13°C° 0.7 mm 9 m/s 748 mmHg 91%
08:00 +12°C° 0.7 mm 7 m/s 749 mmHg 90%
09:00 +13°C° 0.1 mm 8 m/s 749 mmHg 85%
10:00 +13°C° 0.1 mm 9 m/s 749 mmHg 80%
11:00 +15°C° 0.1 mm 9 m/s 749 mmHg 74%
12:00 +15°C° 0.1 mm 9 m/s 749 mmHg 72%
13:00 +15°C° 0.1 mm 9 m/s 749 mmHg 69%
14:00 +13°C° 0.1 mm 9 m/s 749 mmHg 66%
15:00 +13°C° 0.3 mm 9 m/s 749 mmHg 72%
16:00 +12°C° 0.3 mm 9 m/s 750 mmHg 77%
17:00 +12°C° 0.3 mm 9 m/s 750 mmHg 83%
18:00 +11°C° 0.2 mm 8 m/s 751 mmHg 85%
19:00 +11°C° 0.2 mm 8 m/s 751 mmHg 86%
20:00 +11°C° 0.2 mm 8 m/s 752 mmHg 88%
21:00 +11°C° 0.1 mm 7 m/s 752 mmHg 89%
22:00 +11°C° 0.1 mm 7 m/s 752 mmHg 90%
23:00 +11°C° 0.1 mm 6 m/s 753 mmHg 90%

21 Ianuarie, Joi

Timp Temperatura Precipitaţii Vânt Presiune Umiditate
00:00 +11°C° 0.1 mm 6 m/s 753 mmHg 91%
01:00 +11°C° 0.1 mm 6 m/s 753 mmHg 92%
02:00 +12°C° 0.1 mm 5 m/s 753 mmHg 93%
03:00 +11°C° 0.2 mm 6 m/s 753 mmHg 94%
04:00 +11°C° 0.2 mm 6 m/s 753 mmHg 94%
05:00 +11°C° 0.2 mm 6 m/s 753 mmHg 95%
06:00 +12°C° 0.1 mm 7 m/s 753 mmHg 94%
07:00 +12°C° 0.1 mm 7 m/s 754 mmHg 93%
08:00 +14°C° 0.1 mm 7 m/s 754 mmHg 92%
09:00 +15°C° 0 mm 8 m/s 754 mmHg 87%
10:00 +16°C° 0 mm 9 m/s 754 mmHg 82%
11:00 +16°C° 0 mm 10 m/s 753 mmHg 77%
12:00 +16°C° 0.2 mm 10 m/s 753 mmHg 82%
13:00 +14°C° 0.2 mm 10 m/s 753 mmHg 87%
14:00 +14°C° 0.2 mm 10 m/s 752 mmHg 92%
15:00 +15°C° 0.4 mm 8 m/s 752 mmHg 93%
16:00 +14°C° 0.4 mm 7 m/s 753 mmHg 94%
17:00 +14°C° 0.4 mm 6 m/s 753 mmHg 95%
18:00 +14°C° 0 mm 5 m/s 753 mmHg 95%
19:00 +13°C° 0 mm 5 m/s 754 mmHg 95%
20:00 +13°C° 0 mm 4 m/s 754 mmHg 95%
21:00 +13°C° 0 mm 4 m/s 754 mmHg 95%
22:00 +12°C° 0 mm 4 m/s 754 mmHg 95%
23:00 +12°C° 0 mm 3 m/s 754 mmHg 96%

22 Ianuarie, Vineri

Timp Temperatura Precipitaţii Vânt Presiune Umiditate
00:00 +12°C° 0 mm 4 m/s 754 mmHg 96%
01:00 +12°C° 0 mm 5 m/s 754 mmHg 96%
02:00 +12°C° 0 mm 5 m/s 754 mmHg 96%
03:00 +13°C° 0.1 mm 6 m/s 754 mmHg 95%
04:00 +12°C° 0.1 mm 7 m/s 754 mmHg 95%
05:00 +12°C° 0.1 mm 7 m/s 754 mmHg 94%
06:00 +12°C° 0.3 mm 7 m/s 754 mmHg 93%
07:00 +13°C° 0.3 mm 8 m/s 755 mmHg 92%
08:00 +13°C° 0.3 mm 8 m/s 755 mmHg 91%
09:00 +13°C° 0.2 mm 8 m/s 755 mmHg 88%
10:00 +15°C° 0.2 mm 8 m/s 756 mmHg 85%
11:00 +15°C° 0.2 mm 9 m/s 756 mmHg 81%
12:00 +15°C° 0 mm 8 m/s 756 mmHg 75%
13:00 +15°C° 0 mm 8 m/s 756 mmHg 69%
14:00 +15°C° 0 mm 7 m/s 756 mmHg 62%
15:00 +13°C° 0 mm 6 m/s 756 mmHg 68%
16:00 +11°C° 0 mm 6 m/s 756 mmHg 73%
17:00 +10°C° 0 mm 5 m/s 757 mmHg 78%
18:00 +10°C° 0 mm 4 m/s 757 mmHg 81%
19:00 +10°C° 0 mm 3 m/s 758 mmHg 83%
20:00 +9°C° 0 mm 3 m/s 758 mmHg 85%
21:00 +9°C° 0 mm 2 m/s 758 mmHg 86%
22:00 +9°C° 0 mm 2 m/s 758 mmHg 86%
23:00 +10°C° 0 mm 1 m/s 758 mmHg 87%

23 Ianuarie, Sâmbătă

Timp Temperatura Precipitaţii Vânt Presiune Umiditate
00:00 +9°C° 0 mm 2 m/s 758 mmHg 87%
01:00 +9°C° 0 mm 2 m/s 758 mmHg 87%
02:00 +9°C° 0 mm 2 m/s 758 mmHg 87%
03:00 +9°C° 0 mm 2 m/s 758 mmHg 86%
04:00 +9°C° 0 mm 3 m/s 757 mmHg 86%
05:00 +9°C° 0 mm 3 m/s 757 mmHg 86%
06:00 +9°C° 0 mm 3 m/s 757 mmHg 85%
07:00 +10°C° 0 mm 3 m/s 757 mmHg 84%
08:00 +10°C° 0 mm 3 m/s 758 mmHg 83%
09:00 +12°C° 0 mm 4 m/s 758 mmHg 77%
10:00 +13°C° 0 mm 4 m/s 758 mmHg 71%
11:00 +15°C° 0 mm 5 m/s 757 mmHg 66%
12:00 +15°C° 0 mm 5 m/s 757 mmHg 66%
13:00 +15°C° 0 mm 5 m/s 756 mmHg 67%
14:00 +15°C° 0 mm 5 m/s 756 mmHg 68%
15:00 +14°C° 0 mm 5 m/s 756 mmHg 76%
16:00 +13°C° 0 mm 5 m/s 756 mmHg 84%
17:00 +12°C° 0 mm 4 m/s 756 mmHg 92%
18:00 +12°C° 0 mm 4 m/s 756 mmHg 93%
19:00 +13°C° 0 mm 4 m/s 756 mmHg 94%
20:00 +13°C° 0 mm 4 m/s 756 mmHg 95%
21:00 +13°C° 0 mm 4 m/s 756 mmHg 95%
22:00 +13°C° 0 mm 5 m/s 756 mmHg 96%
23:00 +13°C° 0 mm 5 m/s 756 mmHg 96%
Arată mai mult

Formular de consimțământ

Meteoprog și furnizorii noștri de servicii pot stoca și accesa date personale, precum cookies, identificatori de dispozitiv sau alte tehnologii similare pe dispozitivul dumneavoastră și procesa astfel de date pentru a personaliza conținutul și reclamele, dar și pentru a oferi caracteristici de social media și pentru a analiza traficul.

  • Stocarea și/sau accesarea informațiilor pe dispozitivul dumneavoastră

    Cookies, identificatori de dispozitiv sau alte informații pot fi stocate sau accesate pe dispozitiv în scopurile indicate mai sus.

  • Reclame și conținut personalizat, evaluarea reclamelor și a conținutului, informații despre audiențe și dezvoltarea produselor

    Reclamele și conținutul pot fi personalizate pe baza unui profil. Pot fi adăugate date suplimentare pentru a personaliza mai bine reclamele și conținutul. Performanța reclamelor și conținutului poate fi măsurată. Pot fi obținute informații despre utilizatorii care au văzut reclamele și conținutul. Aceste date pot fi utilizate pentru a dezvolta sau îmbunătăți experiența utilizatorilor, sistemele și software-ul.

Dând clic pe ‘Sunt de acord’, permiteți utilizarea cookie-urilor menționate, a identificatorilor de dispozitiv, balizelor web sau altor tehnologii similare. Setările pot fi modificate din browser-ul dispozitivului dumneavoastră.

În anumite scopuri, interesele legitime pot prima asupra consimțământului. Puteți citi mai multe informații în acest sens în Politica privind Confidențialitatea Datelor și Cookie.